GW3596 Weather Reports


time (UTC)temp
C
wind
direction
speed
KPH
gust
KPH
rain 1hr
cm
rain 24hr
cm
rain mn
cm
humidity
%
barometer
mb
20260504035606 8 329 0.0 0.0 0.00 0.00 0.00 76 1019.5
20260504035103 8 329 0.0 0.0 0.00 0.00 0.00 71 1019.3
20260504034601 8 329 0.0 0.0 0.00 0.00 0.00 69 1019.0
20260504034057 8 328 0.0 0.0 0.00 0.00 0.00 69 1019.4
20260504033555 9 328 0.0 0.0 0.00 0.00 0.00 64 1019.1
20260504033052 8 327 0.0 0.0 0.00 0.00 0.00 64 1019.0
20260504032549 9 328 0.0 0.0 0.00 0.00 0.00 64 1019.1
20260504032046 9 328 0.0 0.0 0.00 0.00 0.00 63 1019.3
20260504031543 9 328 0.0 0.0 0.00 0.00 0.00 63 1019.4
20260504031039 9 328 0.0 0.0 0.00 0.00 0.00 65 1019.4
20260504030537 10 328 0.0 0.0 0.00 0.00 0.00 61 1019.2
20260504030032 10 328 0.0 0.0 0.00 0.00 0.00 60 1019.0
20260504025530 10 328 0.0 0.0 0.00 0.00 0.00 62 1019.3
20260504025026 10 328 0.0 0.0 0.00 0.00 0.00 59 1019.2
20260504024524 10 328 0.0 0.0 0.00 0.00 0.00 61 1019.2
20260504024020 10 328 0.0 0.0 0.00 0.00 0.00 56 1019.2
20260504023517 10 331 0.0 0.0 0.00 0.00 0.00 56 1019.4
20260504023013 11 329 0.0 0.0 0.00 0.00 0.00 57 1019.4
20260504022509 11 337 0.0 0.0 0.00 0.00 0.00 59 1019.1
20260504022006 11 323 0.0 0.0 0.00 0.00 0.00 56 1019.2
20260504021504 12 323 0.0 0.0 0.00 0.00 0.00 53 1019.1
20260504021000 12 323 0.0 0.0 0.00 0.00 0.00 50 1019.0
20260504020456 12 323 0.0 0.0 0.00 0.00 0.00 50 1019.1
20260504015953 12 322 0.0 0.0 0.00 0.00 0.00 49 1018.8
20260504015449 12 318 0.0 0.0 0.00 0.00 0.00 49 1018.9
20260504014945 12 318 0.0 0.0 0.00 0.00 0.00 50 1019.0
20260504014442 12 318 0.0 0.0 0.00 0.00 0.00 49 1018.7
20260504013938 12 318 0.0 0.0 0.00 0.00 0.00 49 1019.0
20260504013437 12 318 0.0 0.0 0.00 0.00 0.00 49 1018.8
20260504012933 12 318 0.0 0.0 0.00 0.00 0.00 48 1018.7
20260504012431 12 320 0.0 0.0 0.00 0.00 0.00 48 1018.8
20260504011928 12 319 0.0 0.0 0.00 0.00 0.00 48 1018.9
20260504011425 12 319 0.0 0.0 0.00 0.00 0.00 50 1018.4
20260504010921 12 325 0.0 0.0 0.00 0.00 0.00 47 1018.7
20260504010417 12 325 0.0 0.0 0.00 0.00 0.00 47 1018.6
20260504005913 12 326 0.0 0.0 0.00 0.00 0.00 47 1018.4
20260504005410 12 318 0.0 0.0 0.00 0.00 0.00 47 1018.5
20260504004908 12 318 0.0 0.0 0.00 0.00 0.00 47 1018.2
20260504004405 12 315 0.0 0.0 0.00 0.00 0.00 46 1018.2
20260504003902 12 327 0.0 0.0 0.00 0.00 0.00 46 1018.4
20260504003358 12 326 0.0 0.0 0.00 0.00 0.00 46 1018.4
20260504002855 12 328 0.0 0.0 0.00 0.00 0.00 46 1018.2
20260504002352 12 328 0.0 0.0 0.00 0.00 0.00 46 1018.1
20260504001849 13 329 0.0 0.0 0.00 0.00 0.00 45 1018.2
20260504001347 12 329 0.0 0.0 0.00 0.00 0.00 44 1018.0
20260504000843 12 330 0.0 0.0 0.00 0.00 0.00 45 1018.1
20260504000341 12 330 0.0 0.0 0.00 0.00 0.00 50 1017.9
20260503235838 12 330 0.0 0.0 0.00 0.00 0.00 51 1018.4
20260503235336 13 330 0.0 0.0 0.00 0.00 0.00 55 1018.0
20260503234833 13 330 0.0 0.0 0.00 0.00 0.00 50 1018.1
20260503234330 13 330 0.0 0.0 0.00 0.00 0.00 46 1018.2
20260503233828 13 330 0.0 0.0 0.00 0.00 0.00 53 1018.0
20260503233324 13 330 0.0 0.0 0.00 0.00 0.00 48 1018.0
20260503232820 14 326 0.0 0.0 0.00 0.00 0.00 46 1017.9
20260503232318 14 318 0.0 0.0 0.00 0.00 0.00 44 1018.0
20260503231816 14 319 0.0 0.0 0.00 0.00 0.00 45 1018.0
20260503231313 14 326 0.0 0.0 0.00 0.00 0.00 47 1018.0
20260503230808 14 326 0.0 0.0 0.00 0.00 0.00 50 1018.2
20260503230306 15 326 0.0 0.0 0.00 0.00 0.00 48 1018.0
20260503225803 15 328 0.0 0.0 0.00 0.00 0.00 46 1018.0
20260503225258 15 328 0.0 0.0 0.00 0.00 0.00 46 1018.2
20260503224755 15 325 0.0 0.0 0.00 0.00 0.00 46 1017.9
20260503224253 15 329 0.0 0.0 0.00 0.00 0.00 42 1018.2
20260503223750 15 335 0.0 0.0 0.00 0.00 0.00 43 1018.1
20260503223248 15 317 0.0 0.0 0.00 0.00 0.00 50 1018.2
20260503222744 15 319 0.0 0.0 0.00 0.00 0.00 50 1018.1
20260503222242 16 325 0.0 0.0 0.00 0.00 0.00 45 1018.0
20260503221740 16 325 0.0 0.0 0.00 0.00 0.00 49 1018.1
20260503221237 16 327 0.0 1.6 0.00 0.00 0.00 41 1018.1
20260503220733 16 324 0.0 0.0 0.00 0.00 0.00 47 1018.1
20260503220231 16 327 0.0 0.0 0.00 0.00 0.00 43 1018.2
20260503215727 16 4 1.6 3.2 0.00 0.00 0.00 41 1018.4
20260503215225 16 329 0.0 0.0 0.00 0.00 0.00 40 1018.4
20260503214723 16 328 0.0 1.6 0.00 0.00 0.00 39 1018.1
20260503214219 16 332 0.0 1.6 0.00 0.00 0.00 39 1018.4
20260503213717 16 335 1.6 1.6 0.00 0.00 0.00 41 1018.1
20260503213214 16 329 0.0 0.0 0.00 0.00 0.00 41 1018.1
20260503212711 16 330 0.0 1.6 0.00 0.00 0.00 40 1018.5
20260503212209 16 326 0.0 0.0 0.00 0.00 0.00 41 1018.2
20260503211706 17 336 0.0 1.6 0.00 0.00 0.00 40 1018.5
20260503211202 17 336 1.6 1.6 0.00 0.00 0.00 41 1018.5
20260503210658 16 330 0.0 0.0 0.00 0.00 0.00 42 1018.4
20260503210155 16 326 0.0 0.0 0.00 0.00 0.00 45 1018.2
20260503205650 17 323 0.0 1.6 0.00 0.00 0.00 39 1018.4
20260503205147 17 324 0.0 0.0 0.00 0.00 0.00 35 1018.6
20260503204643 17 342 1.6 1.6 0.00 0.00 0.00 38 1018.7
20260503204141 17 330 0.0 0.0 0.00 0.00 0.00 37 1018.7
20260503203638 17 329 0.0 1.6 0.00 0.00 0.00 36 1018.8
20260503203136 17 325 0.0 0.0 0.00 0.00 0.00 34 1018.9
20260503202633 17 330 0.0 0.0 0.00 0.00 0.00 36 1018.9
20260503202131 17 317 0.0 1.6 0.00 0.00 0.00 35 1018.8
20260503201629 17 319 0.0 0.0 0.00 0.00 0.00 36 1019.1
20260503201126 17 317 0.0 1.6 0.00 0.00 0.00 34 1019.0
20260503200621 17 329 0.0 0.0 0.00 0.00 0.00 36 1019.0
20260503200118 17 331 1.6 1.6 0.00 0.00 0.00 36 1019.1
20260503195615 17 316 0.0 0.0 0.00 0.00 0.00 33 1019.5
20260503195112 17 327 0.0 0.0 0.00 0.00 0.00 37 1019.4
20260503194609 17 334 0.0 0.0 0.00 0.00 0.00 34 1019.3
20260503194103 17 320 0.0 0.0 0.00 0.00 0.00 33 1019.5
20260503193600 16 17 1.6 3.2 0.00 0.00 0.00 37 1019.6
20260503193056 17 326 3.2 3.2 0.00 0.00 0.00 33 1019.9
20260503192552 17 319 0.0 0.0 0.00 0.00 0.00 32 1019.9
20260503192048 17 322 0.0 0.0 0.00 0.00 0.00 35 1019.6
20260503191540 17 315 0.0 1.6 0.00 0.00 0.00 36 1019.9
20260503191036 17 324 0.0 0.0 0.00 0.00 0.00 37 1019.7
20260503190533 17 340 1.6 3.2 0.00 0.00 0.00 37 1020.0
20260503190030 17 310 1.6 1.6 0.00 0.00 0.00 36 1020.1
20260503185526 17 327 0.0 1.6 0.00 0.00 0.00 37 1020.1
20260503185021 17 332 0.0 1.6 0.00 0.00 0.00 35 1020.3
20260503184518 17 324 0.0 0.0 0.00 0.00 0.00 33 1020.1
20260503184014 16 327 0.0 0.0 0.00 0.00 0.00 36 1020.1
20260503183511 16 317 1.6 1.6 0.00 0.00 0.00 36 1020.2
20260503183008 16 328 0.0 0.0 0.00 0.00 0.00 39 1020.3
20260503182507 17 329 1.6 3.2 0.00 0.00 0.00 41 1020.3
20260503182005 16 320 0.0 0.0 0.00 0.00 0.00 38 1020.4
20260503181501 16 335 0.0 1.6 0.00 0.00 0.00 35 1020.5
20260503180956 16 324 0.0 1.6 0.00 0.00 0.00 36 1020.6
20260503180455 16 316 1.6 1.6 0.00 0.00 0.00 34 1020.4
20260503175951 16 320 0.0 0.0 0.00 0.00 0.00 41 1020.5
20260503175449 16 329 0.0 1.6 0.00 0.00 0.00 38 1020.4
20260503174945 15 323 0.0 1.6 0.00 0.00 0.00 36 1020.5
20260503174443 16 316 1.6 1.6 0.00 0.00 0.00 34 1020.5
20260503173938 16 320 0.0 0.0 0.00 0.00 0.00 37 1020.6
20260503173434 15 322 0.0 0.0 0.00 0.00 0.00 41 1020.8
20260503172931 15 331 1.6 1.6 0.00 0.00 0.00 41 1020.6
20260503172429 15 325 0.0 1.6 0.00 0.00 0.00 41 1020.7
20260503171925 16 321 0.0 1.6 0.00 0.00 0.00 46 1020.9
20260503171422 15 317 0.0 1.6 0.00 0.00 0.00 41 1020.7
20260503170919 16 332 1.6 1.6 0.00 0.00 0.00 42 1020.9
20260503170415 16 14 3.2 4.8 0.00 0.00 0.00 40 1021.2
20260503150808 12 331 0.0 0.0 0.00 0.00 0.00 60 1021.9
20260503150303 11 321 0.0 0.0 0.00 0.00 0.00 59 1021.6
20260503140228 9 331 1.6 1.6 0.00 0.00 0.00 71 1021.6
20260503131158 6 331 1.6 1.6 0.00 0.00 0.00 84 1021.6
20260503130655 6 342 1.6 1.6 0.00 0.00 0.00 85 1021.5
20260503130152 5 334 1.6 1.6 0.00 0.00 0.00 86 1021.7
20260503120118 4 330 0.0 0.0 0.00 0.00 0.00 91 1021.1
20260503110545 3 321 0.0 0.0 0.00 0.00 0.00 91 1020.1
20260503090432 5 322 0.0 0.0 0.00 0.00 0.00 87 1019.1
20260503081359 5 322 0.0 0.0 0.00 0.00 0.00 85 1018.8
20260503080855 5 322 0.0 0.0 0.00 0.00 0.00 84 1018.7
20260503080352 5 322 0.0 0.0 0.00 0.00 0.00 84 1018.6
20260503072829 5 322 0.0 0.0 0.00 0.00 0.00 82 1018.2
20260503072326 5 322 0.0 0.0 0.00 0.00 0.00 83 1018.5
20260503071822 5 322 0.0 0.0 0.00 0.00 0.00 81 1018.4
20260503071320 5 322 0.0 0.0 0.00 0.00 0.00 81 1018.4
20260503070815 5 322 0.0 0.0 0.00 0.00 0.00 83 1018.2
20260503070313 5 322 0.0 0.0 0.00 0.00 0.00 81 1018.1
20260503060227 6 323 0.0 0.0 0.00 0.00 0.00 76 1018.0
20260503054714 6 323 0.0 0.0 0.00 0.00 0.00 74 1018.1
20260503054211 6 323 0.0 0.0 0.00 0.00 0.00 80 1017.9
20260503053709 6 323 0.0 0.0 0.00 0.00 0.00 79 1018.0
20260503053207 6 322 0.0 0.0 0.00 0.00 0.00 78 1018.1
20260503052703 6 322 0.0 0.0 0.00 0.00 0.00 78 1018.0
20260503052200 6 322 0.0 0.0 0.00 0.00 0.00 78 1018.1
20260503051655 6 322 0.0 0.0 0.00 0.00 0.00 79 1018.1
20260503051153 6 322 0.0 0.0 0.00 0.00 0.00 78 1018.0
20260503050649 6 322 0.0 0.0 0.00 0.00 0.00 78 1018.2
20260503050146 6 322 0.0 0.0 0.00 0.00 0.00 78 1018.2
20260503045644 7 322 0.0 0.0 0.00 0.00 0.00 78 1018.2
20260503045141 7 322 0.0 0.0 0.00 0.00 0.00 78 1018.2
20260503044637 7 322 0.0 0.0 0.00 0.00 0.00 77 1018.4
20260503044135 7 322 0.0 0.0 0.00 0.00 0.00 75 1018.1
20260503043631 7 322 0.0 0.0 0.00 0.00 0.00 76 1018.4
20260503043128 7 322 0.0 0.0 0.00 0.00 0.00 75 1018.2
20260503042625 7 322 0.0 0.0 0.00 0.00 0.00 73 1018.2
20260503042121 7 322 0.0 0.0 0.00 0.00 0.00 72 1018.2
20260503041617 7 322 0.0 0.0 0.00 0.00 0.00 70 1018.1
20260503041110 7 322 0.0 0.0 0.00 0.00 0.00 70 1018.0
20260503040607 7 322 0.0 0.0 0.00 0.00 0.00 69 1018.2
20260503040104 7 322 0.0 0.0 0.00 0.00 0.00 72 1018.1